KN4FVH Weather Reports


time (UTC)temp
C
wind
direction
speed
KPH
gust
KPH
rain 1hr
cm
rain 24hr
cm
rain mn
cm
humidity
%
barometer
mb
20260504210056 25 204 1.6 1.6 0.00 0.00 0.00 33 1015.0
20260504205554 25 216 1.6 3.2 0.00 0.00 0.00 35 1014.8
20260504205052 25 146 1.6 1.6 0.00 0.00 0.00 32 1015.2
20260504204550 25 176 1.6 1.6 0.00 0.00 0.00 32 1015.5
20260504204049 25 207 1.6 3.2 0.00 0.00 0.00 33 1015.4
20260504203546 25 191 3.2 3.2 0.00 0.00 0.00 35 1015.4
20260504203044 25 184 0.0 1.6 0.00 0.00 0.00 33 1015.3
20260504202539 25 213 0.0 1.6 0.00 0.00 0.00 34 1015.3
20260504202036 25 202 1.6 1.6 0.00 0.00 0.00 32 1015.4
20260504201533 25 181 1.6 1.6 0.00 0.00 0.00 36 1015.6
20260504201031 25 250 0.0 1.6 0.00 0.00 0.00 33 1015.6
20260504200527 25 199 1.6 1.6 0.00 0.00 0.00 35 1015.6
20260504200024 25 175 1.6 1.6 0.00 0.00 0.00 35 1015.9
20260504195520 25 190 0.0 0.0 0.00 0.00 0.00 37 1015.6
20260504195017 25 215 0.0 0.0 0.00 0.00 0.00 34 1015.9
20260504194513 25 193 0.0 0.0 0.00 0.00 0.00 33 1015.9
20260504194008 25 218 1.6 1.6 0.00 0.00 0.00 34 1015.9
20260504193506 25 212 1.6 1.6 0.00 0.00 0.00 34 1015.9
20260504193005 25 137 1.6 1.6 0.00 0.00 0.00 37 1016.1
20260504192502 25 259 0.0 0.0 0.00 0.00 0.00 33 1015.9
20260504192000 25 175 0.0 0.0 0.00 0.00 0.00 35 1015.9
20260504191458 25 215 1.6 1.6 0.00 0.00 0.00 33 1015.9
20260504190953 25 220 0.0 1.6 0.00 0.00 0.00 34 1016.2
20260504190449 25 197 1.6 1.6 0.00 0.00 0.00 34 1016.1
20260504185946 25 210 0.0 1.6 0.00 0.00 0.00 32 1016.3
20260504185443 25 212 0.0 1.6 0.00 0.00 0.00 33 1016.5
20260504184939 24 209 0.0 1.6 0.00 0.00 0.00 34 1016.3
20260504184435 23 328 3.2 3.2 0.00 0.00 0.00 34 1016.8
20260504183931 24 280 1.6 1.6 0.00 0.00 0.00 33 1016.6
20260504183428 25 327 3.2 3.2 0.00 0.00 0.00 33 1016.6
20260504182926 24 212 1.6 1.6 0.00 0.00 0.00 33 1016.4
20260504182423 24 318 3.2 4.8 0.00 0.00 0.00 33 1016.7
20260504181920 24 250 0.0 0.0 0.00 0.00 0.00 36 1016.6
20260504181417 24 196 0.0 1.6 0.00 0.00 0.00 35 1016.8
20260504180916 24 210 0.0 0.0 0.00 0.00 0.00 34 1016.6
20260504180414 23 223 1.6 1.6 0.00 0.00 0.00 36 1016.9
20260504175912 23 182 0.0 0.0 0.00 0.00 0.00 38 1016.9
20260504175409 23 323 0.0 0.0 0.00 0.00 0.00 38 1016.9
20260504174907 23 196 0.0 0.0 0.00 0.00 0.00 42 1016.9
20260504174404 22 303 1.6 1.6 0.00 0.00 0.00 39 1017.2
20260504173901 22 330 3.2 3.2 0.00 0.00 0.00 39 1016.9
20260504173357 22 340 1.6 3.2 0.00 0.00 0.00 40 1017.2
20260504172855 22 250 0.0 0.0 0.00 0.00 0.00 41 1017.3
20260504172351 22 311 3.2 3.2 0.00 0.00 0.00 39 1017.4
20260504171847 22 336 4.8 4.8 0.00 0.00 0.00 40 1017.6
20260504171344 22 186 0.0 0.0 0.00 0.00 0.00 39 1017.7
20260504170842 22 200 1.6 1.6 0.00 0.00 0.00 40 1017.7
20260504170338 22 320 3.2 4.8 0.00 0.00 0.00 40 1017.7
20260504160256 20 201 0.0 0.0 0.00 0.00 0.00 48 1018.6
20260504150722 18 180 1.6 1.6 0.00 0.00 0.00 58 1018.6
20260504150219 18 207 0.0 0.0 0.00 0.00 0.00 58 1018.7
20260504141148 16 187 0.0 0.0 0.00 0.00 0.00 66 1018.7
20260504140645 16 209 0.0 0.0 0.00 0.00 0.00 67 1018.9
20260504140140 16 180 1.6 1.6 0.00 0.00 0.00 69 1018.7
20260504130609 13 224 0.0 0.0 0.00 0.00 0.00 77 1019.0
20260504130105 13 198 1.6 1.6 0.00 0.00 0.00 78 1018.9
20260504110456 10 169 0.0 0.0 0.00 0.00 0.00 89 1019.1
20260504100418 10 168 0.0 0.0 0.00 0.00 0.00 87 1018.7
20260504081811 10 167 0.0 0.0 0.00 0.00 0.00 80 1018.8
20260504081308 10 168 0.0 0.0 0.00 0.00 0.00 80 1018.9
20260504080804 10 167 0.0 0.0 0.00 0.00 0.00 79 1018.7
20260504080301 10 167 0.0 0.0 0.00 0.00 0.00 79 1018.7
20260504070229 11 163 0.0 0.0 0.00 0.00 0.00 70 1018.7
20260504060149 11 189 0.0 0.0 0.00 0.00 0.00 64 1018.9
20260504050617 9 319 0.0 0.0 0.00 0.00 0.00 71 1019.1
20260504050114 9 319 0.0 0.0 0.00 0.00 0.00 73 1019.0
20260504045611 9 319 0.0 0.0 0.00 0.00 0.00 75 1019.1
20260504045106 9 319 0.0 0.0 0.00 0.00 0.00 75 1019.0
20260504044604 9 319 0.0 0.0 0.00 0.00 0.00 74 1019.0
20260504044100 9 319 0.0 0.0 0.00 0.00 0.00 74 1019.1
20260504043558 9 319 0.0 0.0 0.00 0.00 0.00 75 1019.1
20260504043055 9 319 0.0 0.0 0.00 0.00 0.00 75 1019.2
20260504042552 9 319 0.0 0.0 0.00 0.00 0.00 76 1019.1
20260504042049 9 319 0.0 0.0 0.00 0.00 0.00 76 1019.3
20260504041545 9 319 0.0 0.0 0.00 0.00 0.00 77 1019.1
20260504041041 9 319 0.0 0.0 0.00 0.00 0.00 79 1019.3
20260504040539 9 319 0.0 0.0 0.00 0.00 0.00 79 1019.2
20260504040035 9 319 0.0 0.0 0.00 0.00 0.00 78 1019.2
20260504035532 9 319 0.0 0.0 0.00 0.00 0.00 77 1019.3
20260504035028 9 319 0.0 0.0 0.00 0.00 0.00 77 1018.9
20260504034526 9 319 0.0 0.0 0.00 0.00 0.00 73 1019.1
20260504034023 9 319 0.0 0.0 0.00 0.00 0.00 75 1019.0
20260504033521 9 319 0.0 0.0 0.00 0.00 0.00 74 1019.0
20260504033018 9 319 0.0 0.0 0.00 0.00 0.00 71 1018.9
20260504032515 9 319 0.0 0.0 0.00 0.00 0.00 72 1018.9
20260504032012 10 319 0.0 0.0 0.00 0.00 0.00 72 1019.2
20260504031509 10 319 0.0 0.0 0.00 0.00 0.00 73 1019.0
20260504031005 10 319 0.0 0.0 0.00 0.00 0.00 73 1018.9
20260504030503 10 319 0.0 0.0 0.00 0.00 0.00 76 1019.0
20260504025958 10 319 0.0 0.0 0.00 0.00 0.00 72 1018.9
20260504025455 10 319 0.0 0.0 0.00 0.00 0.00 71 1018.7
20260504024952 10 319 0.0 0.0 0.00 0.00 0.00 72 1018.8
20260504024449 10 319 0.0 0.0 0.00 0.00 0.00 73 1019.0
20260504023946 10 319 0.0 0.0 0.00 0.00 0.00 71 1018.9
20260504023443 10 319 0.0 0.0 0.00 0.00 0.00 74 1018.8
20260504022938 10 319 0.0 0.0 0.00 0.00 0.00 73 1018.9
20260504022435 10 319 0.0 0.0 0.00 0.00 0.00 71 1018.6
20260504021931 10 319 0.0 0.0 0.00 0.00 0.00 69 1018.7
20260504021429 10 319 0.0 0.0 0.00 0.00 0.00 71 1018.8
20260504020926 10 319 0.0 0.0 0.00 0.00 0.00 69 1018.9
20260504020422 10 319 0.0 0.0 0.00 0.00 0.00 67 1018.7
20260504015919 10 319 0.0 0.0 0.00 0.00 0.00 67 1018.5
20260504015415 11 319 0.0 0.0 0.00 0.00 0.00 66 1018.9
20260504014911 11 319 0.0 0.0 0.00 0.00 0.00 67 1018.8
20260504014407 11 319 0.0 0.0 0.00 0.00 0.00 67 1018.8
20260504013904 11 319 0.0 0.0 0.00 0.00 0.00 66 1018.7
20260504013403 11 319 0.0 0.0 0.00 0.00 0.00 64 1018.7
20260504012858 11 319 0.0 0.0 0.00 0.00 0.00 61 1018.4
20260504012357 11 319 0.0 0.0 0.00 0.00 0.00 60 1018.5
20260504011854 12 319 0.0 0.0 0.00 0.00 0.00 61 1018.6
20260504011350 12 319 0.0 0.0 0.00 0.00 0.00 65 1018.4
20260504010846 12 319 0.0 0.0 0.00 0.00 0.00 58 1018.4
20260504010342 12 319 0.0 0.0 0.00 0.00 0.00 55 1018.3
20260504005839 12 319 0.0 0.0 0.00 0.00 0.00 56 1018.1
20260504005336 12 319 0.0 0.0 0.00 0.00 0.00 54 1018.2
20260504004833 12 319 0.0 0.0 0.00 0.00 0.00 55 1018.1
20260504004331 13 319 0.0 0.0 0.00 0.00 0.00 53 1018.3
20260504003827 13 319 0.0 0.0 0.00 0.00 0.00 51 1018.1
20260504003324 13 319 0.0 0.0 0.00 0.00 0.00 49 1018.1
20260504002821 13 319 0.0 0.0 0.00 0.00 0.00 50 1018.0
20260504002318 13 319 0.0 0.0 0.00 0.00 0.00 48 1018.1
20260504001815 14 319 0.0 0.0 0.00 0.00 0.00 47 1017.8
20260504001312 15 319 0.0 0.0 0.00 0.00 0.00 46 1018.0
20260504000809 15 319 0.0 0.0 0.00 0.00 0.00 44 1017.9
20260504000306 15 319 0.0 0.0 0.00 0.00 0.00 46 1017.8
20260503235804 15 318 0.0 0.0 0.00 0.00 0.00 44 1017.8
20260503235302 16 318 0.0 0.0 0.00 0.00 0.00 40 1017.8
20260503234759 16 318 0.0 0.0 0.00 0.00 0.00 42 1017.9
20260503234256 16 318 0.0 0.0 0.00 0.00 0.00 37 1017.7
20260503233754 16 318 0.0 0.0 0.00 0.00 0.00 35 1017.8
20260503233249 16 318 0.0 0.0 0.00 0.00 0.00 35 1017.7
20260503232746 17 318 0.0 0.0 0.00 0.00 0.00 34 1017.7
20260503232244 17 319 0.0 0.0 0.00 0.00 0.00 33 1017.7
20260503231742 17 319 0.0 0.0 0.00 0.00 0.00 34 1017.8
20260503231238 17 335 0.0 0.0 0.00 0.00 0.00 32 1017.8
20260503230734 17 5 0.0 0.0 0.00 0.00 0.00 33 1017.7
20260503230232 17 8 0.0 0.0 0.00 0.00 0.00 35 1017.9
20260503225729 17 332 0.0 1.6 0.00 0.00 0.00 33 1017.7
20260503225229 17 336 1.6 1.6 0.00 0.00 0.00 32 1017.6
20260503224726 17 349 3.2 3.2 0.00 0.00 0.00 31 1017.9
20260503224224 17 243 0.0 0.0 0.00 0.00 0.00 31 1017.6
20260503223721 18 313 0.0 1.6 0.00 0.00 0.00 32 1017.7
20260503223219 18 351 1.6 1.6 0.00 0.00 0.00 32 1017.8
20260503222715 18 1 0.0 1.6 0.00 0.00 0.00 33 1017.9
20260503222213 17 17 1.6 1.6 0.00 0.00 0.00 35 1017.4
20260503221711 17 328 0.0 0.0 0.00 0.00 0.00 33 1017.7
20260503221209 17 304 0.0 0.0 0.00 0.00 0.00 33 1017.6
20260503220705 17 297 0.0 0.0 0.00 0.00 0.00 31 1017.6
20260503220202 18 329 0.0 0.0 0.00 0.00 0.00 31 1017.6
20260503215659 18 205 0.0 0.0 0.00 0.00 0.00 32 1017.5
20260503215155 18 308 0.0 0.0 0.00 0.00 0.00 32 1017.7
20260503214654 18 346 0.0 1.6 0.00 0.00 0.00 33 1017.7
20260503214149 18 339 0.0 0.0 0.00 0.00 0.00 33 1017.8
20260503213643 18 339 0.0 0.0 0.00 0.00 0.00 33 1017.8
20260503213139 17 23 3.2 4.8 0.00 0.00 0.00 33 1017.7
20260503212637 17 3 1.6 1.6 0.00 0.00 0.00 34 1017.9
20260503212134 17 222 0.0 0.0 0.00 0.00 0.00 33 1017.8
20260503211632 17 224 3.2 3.2 0.00 0.00 0.00 33 1018.0
20260503211127 17 237 1.6 1.6 0.00 0.00 0.00 33 1017.9
20260503210624 17 326 1.6 1.6 0.00 0.00 0.00 34 1017.9